Flag for Sweden Weather past 2 weeks in Örebro, Sweden

Now
30 °F

Partly cloudy.


Feels Like: 21 °F
Forecast: 32 / 36 °F
Wind: 12 mph from Northwest

Location: Orebro Private

Current Time: Dec 21, 2014 at 3:01:22 AM

Latest Report: Dec 21, 2014 at 2:20 AM


Visibility: N/A

Pressure: 29.62 "Hg

Humidity: 86%

Dew point: 27 °F

Location of ÖrebroLocation

Historic Weather in Örebro — Graph

°F

Örebro temperature yesterday

Maximum temperature yesterday: 41 °F (at 3:50 AM)
Minimum temperature yesterday: 30 °F (at 6:20 PM)
Average temperature yesterday: 36 °F

Past Weeks' High & Low Weather Summary

 TemperatureHumidityPressure
High43 °F (Dec 7, 12:50 PM)100% (Dec 6, 1:50 AM)30.01 "Hg (Dec 6, 1:50 AM)
Low23 °F (Dec 17, 5:50 PM)70% (Dec 16, 1:20 AM)28.91 "Hg (Dec 12, 10:50 PM)
Average36 °F91%29.44 "Hg
* Reported Dec 6 1:20 AM — Dec 21 1:20 AM, Örebro, Weather by CustomWeather, © 2014

Note: Actual official high and low records may vary slightly from our data, if they occured in-between our weather recording intervals... More about our weather records

Advertising

Örebro weather history for previous 24 hours

 ConditionsComfort  
Time TempWeatherWind HumidityBarometerVisibility
1:20 AM
Dec 21
30 °FChilly.14 mph80%29.56 "HgN/A
12:50 AM30 °FChilly.15 mph86%29.56 "HgN/A
12:20 AM28 °FChilly.6 mph86%29.53 "HgN/A
11:50 PM
Dec 20
30 °FChilly.8 mph80%29.53 "HgN/A
11:20 PM30 °FChilly.7 mph80%29.50 "HgN/A
10:20 PM30 °FChilly.10 mph80%29.47 "HgN/A
9:50 PM30 °FChilly.9 mph86%29.47 "HgN/A
9:20 PM30 °FChilly.7 mph86%29.45 "HgN/A
8:50 PM30 °FChilly.10 mph86%29.42 "HgN/A
8:20 PM30 °FClear.8 mph86%29.39 "Hg10 mi
7:50 PM32 °FPassing clouds.7 mph87%29.36 "HgN/A
7:20 PM30 °FClear.8 mph93%29.36 "Hg10 mi
6:50 PM30 °FClear.7 mph93%29.33 "Hg10 mi
6:20 PM30 °FChilly.8 mph93%29.33 "HgN/A
5:50 PM32 °FChilly.8 mph93%29.30 "HgN/A
5:20 PM32 °FChilly.8 mph93%29.27 "HgN/A
4:50 PM34 °FChilly.10 mph87%29.27 "HgN/A
4:20 PM34 °FChilly.7 mph93%29.24 "HgN/A
3:50 PM36 °FChilly.9 mph87%29.24 "HgN/A
3:20 PM36 °FChilly.6 mph87%29.21 "HgN/A
2:50 PM37 °FChilly.7 mph81%29.21 "HgN/A
2:20 PM39 °FChilly.7 mph87%29.18 "HgN/A
1:50 PM37 °FChilly.7 mph93%29.18 "HgN/A
1:20 PM39 °FChilly.7 mph87%29.18 "HgN/A
12:50 PM39 °FChilly.7 mph87%29.18 "HgN/A
12:20 PM39 °FChilly.6 mph87%29.18 "HgN/A
11:50 AM39 °FChilly.7 mph87%29.18 "HgN/A
11:20 AM37 °FChilly.7 mph93%29.15 "HgN/A
10:50 AM37 °FChilly.6 mph93%29.15 "HgN/A
10:20 AM36 °FChilly.8 mph100%29.15 "HgN/A
9:50 AM34 °FChilly.6 mph100%29.15 "HgN/A
9:20 AM37 °FChilly.6 mph87%29.15 "HgN/A
8:50 AM36 °FChilly.7 mph93%29.15 "HgN/A
8:20 AM37 °FChilly.8 mph87%29.12 "HgN/A
7:50 AM37 °FChilly.10 mph87%29.12 "HgN/A
7:20 AM37 °FChilly.9 mph87%29.12 "HgN/A
6:50 AM39 °FChilly.10 mph81%29.12 "HgN/A
6:20 AM39 °FPassing clouds.13 mph87%29.12 "HgN/A
5:50 AM41 °FPartly cloudy.12 mph81%29.12 "HgN/A
5:20 AM41 °FPartly cloudy.12 mph81%29.12 "HgN/A
4:50 AM39 °FPassing clouds.12 mph81%29.12 "HgN/A
4:20 AM41 °FPartly cloudy.15 mph81%29.12 "HgN/A
3:50 AM41 °FMostly cloudy.14 mph81%29.12 "HgN/A
3:20 AM39 °FPartly cloudy.13 mph87%29.12 "HgN/A
Weather by CustomWeather, © 2014

See weather overviewHow to use our weather pages